Wind_Speed
5 6 10 13 14 4 5 5 5 2 2 7 10 14 17 19 19 20 19 19 18 15 16 6 7 7 8 8 9 10 11 9 8 8 9 10 12 12 13 13 14 15 16 16
5 12 8 7 8 8 10 8 8 6 3 5 15 22 22 24 25 21 19 16 13 11 10 7 5 7 8 8 10 10 9 7 3 5 6 6 4 4 5 5 7 10 12 13
13 3 9 11 7 8 11 13 10 9 6 11 14 17 6 5 6 5 9 10 9 9 8 4 6 8 9 12 13 12 12 11 7 4 1 2 1 1 3 6 6 7 9 10
9 9 1 10 12 9 11 9 9 7 5 6 3 8 10 8 15 8 2 1 3 3 5 5 6 9 11 11 11 13 14 15 15 10 7 7 7 5 6 7 7 7 7 8
4 6 14 9 12 12 4 8 7 7 10 8 10 6 3 5 11 10 4 3 3 4 5 6 8 9 10 11 11 12 14 17 17 17 15 12 11 9 8 8 9 10 9 10
3 1 5 9 3 11 9 4 3 1 3 7 15 13 5 7 16 6 4 4 4 6 7 7 8 8 9 10 12 13 15 17 17 18 18 17 15 12 11 12 11 11 10 11
7 5 3 2 6 2 5 6 3 3 5 7 2 12 16 10 9 7 8 6 6 6 6 6 7 8 9 11 12 12 14 16 16 17 17 17 15 14 14 14 13 13 13 15
10 5 13 11 11 6 15 12 5 5 5 3 2 10 5 10 17 6 4 6 7 7 6 6 7 7 9 10 11 12 13 14 15 15 16 16 16 13 12 13 13 12 13 14
7 5 1 4 4 12 7 13 13 5 2 5 9 10 10 10 6 3 5 8 9 8 7 7 6 6 7 9 11 11 12 13 14 14 14 15 15 14 13 13 13 13 13 14
4 3 2 5 3 7 10 9 4 4 5 9 8 11 11 5 11 8 11 11 10 9 8 7 6 5 6 7 8 10 11 12 13 13 13 13 14 15 14 13 15 15 15 16
8 5 4 3 10 14 6 6 6 3 4 5 7 9 2 10 10 12 11 11 12 12 9 7 6 5 4 5 7 8 10 11 11 12 13 14 15 15 14 13 14 16 16 17
14 5 11 14 3 10 19 17 12 8 10 7 10 23 6 2 1 5 11 13 13 12 10 9 7 5 4 4 6 8 9 9 9 11 12 13 14 15 16 17 16 16 17 16
10 5 8 4 1 6 8 14 16 17 11 22 12 15 4 2 4 5 9 13 13 13 11 9 7 5 3 3 5 6 8 8 10 11 11 12 13 14 15 16 17 16 15 16
10 6 9 11 3 3 8 15 19 19 14 18 23 29 24 10 7 7 9 13 15 14 13 11 9 6 4 3 4 5 7 9 10 10 11 12 14 14 13 14 14 16 16 17
5 10 11 13 12 13 14 13 21 23 25 22 25 28 24 17 19 16 14 14 16 16 15 13 10 8 5 2 2 4 6 8 8 8 10 12 13 11 13 14 15 15 17 17
5 8 10 14 11 15 19 24 22 23 24 25 26 35 20 23 17 9 15 18 19 18 17 13 11 9 6 3 2 4 5 6 6 11 10 11 11 11 15 14 15 15 16 17
8 4 5 18 7 15 16 22 24 25 25 24 25 33 23 26 21 20 19 19 20 20 18 15 12 11 7 5 3 2 4 5 9 10 10 11 12 13 14 13 14 15 16 16
6 5 3 10 1 17 12 12 13 19 22 24 26 28 27 24 20 15 15 18 20 19 19 15 15 11 8 6 5 4 5 7 9 12 11 12 13 13 13 14 15 16 16 17
12 9 5 9 13 18 30 16 11 7 23 18 21 24 26 27 5 13 9 16 16 18 19 18 15 13 9 7 5 6 7 7 10 12 10 11 12 12 13 15 14 15 16 15
16 16 13 12 15 21 26 6 5 7 21 14 16 22 24 8 11 21 14 14 15 21 21 21 17 13 10 6 7 8 7 9 10 8 7 10 9 10 12 12 12 13 13 13
5 10 18 18 17 15 16 7 7 11 23 6 7 19 17 13 12 7 16 15 20 20 20 18 16 15 10 7 8 10 10 7 6 7 8 8 10 10 11 11 11 12 12 13
11 7 9 11 15 25 7 5 15 16 3 3 4 8 11 6 11 15 15 17 20 21 20 17 16 12 10 9 8 11 9 6 6 6 8 10 11 10 9 10 11 12 13 14
10 14 12 10 7 5 4 9 1 1 4 1 3 1 5 11 13 16 16 15 18 20 18 16 16 13 9 10 10 10 6 3 4 8 9 10 11 11 11 10 12 13 14 16
6 4 8 10 21 15 8 4 5 3 4 2 3 5 12 12 14 16 14 13 15 17 17 17 16 14 11 10 9 7 4 5 6 8 9 10 11 11 12 9 10 11 15 17
3 7 9 15 15 7 12 13 6 8 6 6 6 8 11 15 15 15 14 13 17 18 16 15 15 13 12 9 7 6 6 6 7 8 9 9 8 10 9 9 9 10 11 14
7 9 7 13 4 5 6 2 9 10 10 9 13 11 9 12 15 17 11 18 18 17 16 15 14 14 12 10 8 6 6 7 8 7 7 8 6 7 9 11 10 8 10 10
Wind_Direction
205 200 209 199 204 108 150 184 226 275 282 304 276 276 280 280 275 268 266 272 276 279 295 322 335 345 336 326 325 317 309 295 266 238 233 239 243 243 246 251 254 257 256 254
185 227 213 200 209 225 237 227 231 267 285 289 296 289 284 272 266 266 272 276 282 298 300 331 360 22 22 16 13 12 9 5 325 247 238 241 250 250 254 277 274 270 266 261
212 130 209 187 192 212 235 241 244 257 305 278 296 285 286 260 265 266 261 273 289 300 320 39 47 42 38 34 28 26 26 31 31 22 254 237 261 293 22 23 3 347 322 305
234 226 134 206 219 210 237 224 231 255 286 275 24 293 268 256 290 285 320 281 22 32 77 76 67 54 44 38 38 39 41 42 42 63 74 80 68 62 28 16 4 353 355 2
191 178 208 204 207 200 222 169 188 247 263 301 253 258 228 243 252 240 179 132 98 74 75 73 65 54 48 44 45 45 49 49 47 53 56 63 64 53 38 29 24 20 18 21
190 65 199 218 168 193 149 125 81 150 268 260 233 221 241 198 230 214 201 191 146 129 117 98 83 75 59 51 51 52 54 53 50 54 54 57 56 49 41 30 26 12 8 3
184 207 164 177 173 121 181 159 201 238 214 253 336 214 260 238 249 211 269 169 147 132 122 107 87 70 57 51 49 53 54 55 51 53 53 51 49 44 38 28 17 12 4 1
199 217 194 183 206 182 201 197 201 225 221 276 158 236 251 251 230 247 29 136 145 141 122 102 88 77 62 52 49 51 52 52 50 51 47 45 44 38 32 21 13 10 1 353
180 231 186 187 180 182 182 215 223 300 216 267 243 253 268 231 223 258 209 174 167 153 143 125 106 87 73 57 50 48 48 48 46 47 47 40 34 31 25 17 11 3 357 350
182 190 217 171 182 230 211 153 174 189 239 248 254 258 242 189 212 202 201 189 170 160 155 144 124 101 78 59 48 48 52 48 44 43 43 37 27 24 19 15 9 2 355 352
175 223 144 163 207 191 181 199 224 186 232 252 272 259 150 235 242 211 198 183 181 177 169 154 137 116 95 68 50 45 42 42 44 44 36 34 26 20 15 15 9 3 356 355
204 237 237 227 182 245 224 209 199 218 207 239 268 267 141 159 70 207 195 188 181 176 171 165 153 135 110 81 48 39 32 32 37 47 44 35 31 22 15 6 4 5 356 356
174 218 236 191 233 229 233 223 234 236 257 249 245 257 74 81 261 230 200 185 181 178 174 168 165 152 117 77 45 37 32 19 24 31 38 40 33 28 20 5 359 359 359 358
175 200 228 242 261 131 209 226 224 227 236 251 242 267 258 254 246 228 208 194 188 184 181 179 175 163 139 95 54 34 26 26 23 25 27 36 27 27 23 6 360 3 2 3
214 250 247 255 262 264 264 255 233 231 240 242 259 259 263 264 261 240 207 195 191 192 191 189 177 166 149 114 51 37 20 23 28 31 25 26 33 16 25 11 9 5 7 8
204 249 257 261 269 253 255 249 244 247 252 254 260 260 269 270 272 245 201 195 198 197 193 186 172 165 151 126 45 28 16 22 30 42 24 21 26 18 28 12 6 9 7 8
229 236 243 264 313 274 250 250 242 245 243 245 249 259 265 267 261 245 228 202 201 195 185 177 170 161 150 137 117 74 41 41 52 40 24 16 20 23 21 9 9 9 5 6
215 213 223 270 353 264 256 282 248 237 238 236 247 260 261 263 268 251 232 197 197 184 175 168 160 151 143 135 118 103 66 55 55 47 21 10 18 17 15 11 10 7 7 5
214 226 241 242 248 275 277 252 255 239 264 243 247 255 257 261 280 256 215 215 189 169 158 150 148 143 134 120 111 96 70 52 52 41 16 10 11 13 12 10 8 5 3 2
222 223 230 236 243 253 266 253 234 250 263 243 241 246 249 190 240 255 158 142 136 140 141 140 136 130 120 121 118 99 77 60 44 23 6 15 3 16 14 7 5 4 1 357
193 212 223 231 242 255 261 201 157 233 266 204 248 243 262 208 247 107 131 130 133 132 128 128 126 125 124 123 117 103 78 53 33 29 31 26 22 22 12 8 6 1 0 359
192 195 217 235 241 250 157 146 214 239 244 180 258 285 262 161 124 137 137 133 132 130 129 128 124 121 119 120 123 95 81 47 39 49 50 44 36 25 13 12 11 12 9 6
235 217 225 214 234 245 222 238 241 247 273 223 228 262 165 148 147 145 139 134 131 129 131 131 133 126 110 105 100 94 85 66 58 58 52 44 40 33 26 20 16 14 11 9
231 181 232 248 249 241 228 218 210 204 236 289 246 171 154 150 153 135 132 131 129 132 135 136 132 120 105 100 105 114 112 79 69 62 52 41 35 31 29 27 21 14 12 8
222 160 228 241 252 289 251 235 210 173 158 141 123 157 146 152 147 142 134 141 136 135 136 135 129 127 121 124 120 109 94 84 82 65 51 38 25 22 17 23 21 17 14 9
175 218 214 245 253 244 269 131 165 166 168 160 143 116 129 155 142 136 136 138 139 140 137 132 134 132 133 131 118 102 92 80 74 66 48 32 21 14 13 10 7 19 20 23
Height
843 844 844 841 839 843 842 845 847 850 845 849 842 839 834 828 825 820 816 813 810 810 811 815 815 813 811 810 808 806 804 803 802 801 802 803 803 805 806 808 808 809 810 810
845 843 837 841 844 848 848 846 846 845 847 849 839 834 826 819 812 811 810 809 808 807 809 812 815 813 812 810 808 806 803 801 800 800 800 801 802 802 804 804 805 806 806 806
837 840 837 842 847 851 853 848 845 850 847 842 842 823 817 811 812 809 808 808 808 809 810 815 817 816 815 813 810 808 805 802 799 798 798 799 800 801 802 803 803 803 803 803
838 836 844 843 845 849 852 847 848 850 854 851 848 837 817 810 805 804 806 809 812 813 815 818 819 819 818 816 814 812 808 804 800 798 798 799 801 802 804 803 803 802 802 802
840 841 843 845 842 846 844 846 847 848 850 857 850 859 810 817 811 802 805 812 816 818 819 821 822 822 821 820 818 815 811 807 805 802 802 802 803 805 805 805 804 804 803 801
838 846 843 840 845 843 848 850 854 856 858 857 840 844 800 808 799 798 805 811 817 820 822 824 825 824 824 822 820 817 814 811 809 807 806 806 806 806 806 806 805 805 803 801
840 843 844 843 846 848 849 854 858 862 862 842 836 834 804 799 799 798 799 806 815 820 823 825 827 827 827 825 823 820 818 815 812 811 810 808 808 809 809 809 808 805 804 802
836 841 838 838 835 839 846 847 843 851 845 828 844 827 800 795 791 799 804 807 817 822 826 828 830 830 830 829 827 824 821 819 816 814 813 812 810 811 812 811 810 808 806 804
832 834 835 836 835 834 844 845 835 847 868 845 813 802 799 795 800 805 809 814 818 823 828 830 832 833 833 831 829 827 824 821 819 816 815 815 814 813 813 812 811 809 807 804
825 833 838 836 838 835 833 833 850 852 843 833 801 805 788 798 796 802 811 812 819 824 829 832 833 834 834 833 832 829 826 824 821 819 817 816 816 814 813 811 810 809 807 803
823 826 841 840 832 827 840 838 835 835 840 825 811 784 779 778 779 793 800 808 817 823 828 832 834 834 835 834 833 830 828 825 822 820 819 817 816 815 815 812 810 808 806 803
816 821 824 827 826 825 818 820 827 825 829 822 814 776 781 784 790 792 796 808 814 822 827 831 833 834 835 834 832 830 829 827 824 819 818 817 815 815 815 815 811 807 806 803
816 827 826 829 835 830 827 819 817 816 817 806 819 770 787 795 796 797 798 807 815 820 826 829 833 834 834 833 832 831 831 830 825 822 819 817 816 814 814 816 814 811 807 805
814 815 811 805 805 811 821 817 813 814 816 803 792 777 774 783 794 798 801 806 811 817 822 825 829 831 832 832 832 832 831 828 826 824 823 817 817 814 813 816 815 811 808 805
811 811 809 808 811 813 813 811 808 808 801 805 783 779 768 777 776 781 793 802 808 811 816 820 824 828 830 832 832 831 830 828 826 826 825 821 815 818 813 815 811 811 808 804
810 807 805 809 811 811 811 798 803 801 796 792 785 765 774 767 769 779 788 793 797 801 808 816 821 825 828 830 832 831 830 828 826 823 825 822 819 818 811 814 813 810 808 804
804 808 813 804 814 810 809 790 790 785 784 785 778 755 766 762 763 764 772 780 784 789 800 811 817 822 825 827 829 830 829 827 824 824 824 823 819 816 813 816 812 810 808 805
805 811 815 810 823 819 773 769 772 774 770 768 768 758 756 753 752 755 758 769 774 784 796 807 815 822 824 827 827 828 827 826 824 822 825 824 818 817 815 814 812 810 807 804
805 808 809 812 807 788 768 770 774 775 756 760 761 755 751 749 768 757 767 763 768 782 794 805 813 819 823 825 826 826 826 827 824 823 827 824 821 818 816 814 812 811 809 807
794 796 802 800 800 793 745 756 760 766 753 753 751 745 742 759 757 725 762 769 779 790 797 804 812 817 821 825 824 824 827 825 826 828 828 823 824 819 817 816 815 813 811 808
796 796 796 791 787 770 746 757 769 771 720 741 743 734 734 749 737 760 767 778 786 794 801 808 813 816 816 821 823 822 823 828 828 828 826 826 823 819 818 817 816 814 812 809
778 783 782 782 784 772 750 766 753 728 742 753 754 753 747 750 763 768 774 781 788 797 804 809 813 817 821 822 824 821 824 827 829 828 826 824 821 820 819 817 816 814 811 808
771 755 754 755 743 739 746 734 748 753 748 751 756 757 759 765 767 772 779 786 793 797 805 809 815 820 821 820 820 822 826 830 830 827 825 824 822 820 818 817 815 813 811 807
759 761 755 754 736 740 746 752 756 758 759 760 757 760 760 768 775 776 784 792 796 800 806 811 814 817 819 822 823 826 829 828 827 825 824 823 822 821 818 817 816 814 811 808
746 759 744 737 731 750 744 746 749 757 760 761 761 762 762 770 775 779 783 796 799 803 808 810 813 817 820 824 827 828 827 827 825 823 823 822 822 821 820 818 816 815 813 811
751 738 740 719 724 724 727 744 750 755 757 760 762 762 769 777 776 781 790 794 800 804 807 811 815 817 822 825 826 827 826 825 823 823 823 823 823 822 819 816 815 814 812 809